�������l�o���
Date,Time,MP-1(��Sv/h),MP-2(��Sv/h),MP-3(��Sv/h),MP-4(��Sv/h),MP-5(��Sv/h),MP-6(��Sv/h),MP-7(��Sv/h),MP-8(��Sv/h),����,����(m/s),���J
2016/11/03,00:00,1.101,1.921,1.291,2.147,1.488,0.587,1.069,0.982,���쐼,1.3,��
2016/11/03,00:10,1.096,1.920,1.286,2.147,1.488,0.588,1.066,0.980,���쐼,1.6,��
2016/11/03,00:20,1.099,1.919,1.289,2.149,1.488,0.590,1.066,0.982,���쐼,1.3,��
2016/11/03,00:30,1.100,1.921,1.288,2.150,1.488,0.589,1.067,0.983,�쐼,1.9,�L
2016/11/03,00:40,1.101,1.921,1.290,2.150,1.490,0.588,1.065,0.982,��,1.4,��
2016/11/03,00:50,1.100,1.922,1.290,2.150,1.491,0.590,1.066,0.983,��,2.0,��
2016/11/03,01:00,1.101,1.918,1.291,2.148,1.490,0.588,1.066,0.982,��,3.0,��
2016/11/03,01:10,1.100,1.921,1.288,2.151,1.489,0.588,1.067,0.981,��,3.0,��
2016/11/03,01:20,1.099,1.918,1.288,2.146,1.488,0.589,1.064,0.982,��,3.8,��
2016/11/03,01:30,1.101,1.919,1.288,2.148,1.490,0.589,1.067,0.982,��,4.1,�L
2016/11/03,01:40,1.101,1.921,1.288,2.150,1.488,0.589,1.065,0.983,��,5.2,�L
2016/11/03,01:50,1.101,1.922,1.285,2.150,1.489,0.590,1.067,0.981,��,3.3,�L
2016/11/03,02:00,1.100,1.921,1.287,2.146,1.486,0.590,1.066,0.982,��,2.4,�L
2016/11/03,02:10,1.099,1.918,1.288,2.149,1.487,0.590,1.066,0.980,��쐼,1.2,��
2016/11/03,02:20,1.098,1.916,1.288,2.149,1.487,0.590,1.066,0.982,�쐼,1.2,��
2016/11/03,02:30,1.098,1.917,1.286,2.151,1.487,0.588,1.064,0.980,���쐼,1.4,��
2016/11/03,02:40,1.098,1.916,1.288,2.149,1.487,0.588,1.064,0.982,���쐼,0.7,��
2016/11/03,02:50,1.099,1.916,1.288,2.145,1.487,0.591,1.067,0.980,���쐼,1.2,��
2016/11/03,03:00,1.099,1.916,1.286,2.150,1.488,0.591,1.065,0.982,��,1.6,��
2016/11/03,03:10,1.100,1.914,1.286,2.149,1.487,0.590,1.065,0.980,���쐼,1.5,��
2016/11/03,03:20,1.100,1.917,1.288,2.145,1.486,0.588,1.063,0.980,�쐼,1.7,��
2016/11/03,03:30,1.099,1.917,1.289,2.149,1.488,0.588,1.065,0.983,�쐼,2.4,��
2016/11/03,03:40,1.097,1.917,1.291,2.150,1.488,0.589,1.065,0.981,��쐼,2.8,��
2016/11/03,03:50,1.100,1.918,1.288,2.150,1.487,0.588,1.066,0.982,��쐼,3.4,��
2016/11/03,04:00,1.099,1.918,1.289,2.149,1.484,0.588,1.065,0.980,��쐼,4.1,��
2016/11/03,04:10,1.100,1.913,1.288,2.145,1.484,0.589,1.065,0.980,��쐼,4.2,�L
2016/11/03,04:20,1.097,1.911,1.286,2.146,1.484,0.590,1.064,0.980,��쐼,4.7,�L
2016/11/03,04:30,1.097,1.912,1.286,2.146,1.482,0.588,1.066,0.982,��쐼,4.6,��
2016/11/03,04:40,1.096,1.911,1.287,2.144,1.484,0.589,1.065,0.979,��쐼,5.0,�L
2016/11/03,04:50,1.095,1.909,1.286,2.143,1.482,0.589,1.066,0.981,��쐼,4.9,��
2016/11/03,05:00,1.096,1.908,1.283,2.146,1.481,0.588,1.063,0.983,�쐼,4.9,��
2016/11/03,05:10,1.097,1.906,1.286,2.147,1.481,0.588,1.063,0.982,��쐼,4.4,�L
2016/11/03,05:20,1.094,1.904,1.285,2.142,1.479,0.589,1.065,0.982,��쐼,4.5,��
2016/11/03,05:30,1.095,1.902,1.281,2.143,1.481,0.589,1.065,0.980,��,4.7,��
2016/11/03,05:40,1.094,1.904,1.284,2.142,1.478,0.587,1.063,0.983,��쐼,4.5,��
2016/11/03,05:50,1.096,1.906,1.282,2.140,1.477,0.587,1.065,0.981,��쐼,4.5,��
2016/11/03,06:00,1.094,1.904,1.281,2.141,1.480,0.589,1.063,0.981,��쐼,4.5,��
2016/11/03,06:10,1.095,1.903,1.284,2.141,1.479,0.587,1.063,0.979,��쐼,4.1,��
2016/11/03,06:20,1.093,1.901,1.280,2.140,1.477,0.587,1.064,0.981,�쐼,3.8,��
2016/11/03,06:30,1.093,1.902,1.285,2.140,1.480,0.587,1.063,0.980,���쐼,3.8,��
2016/11/03,06:40,1.092,1.904,1.284,2.142,1.477,0.586,1.064,0.982,�쐼,3.2,��
2016/11/03,06:50,1.095,1.901,1.284,2.144,1.479,0.589,1.066,0.981,�쐼,2.8,��
2016/11/03,07:00,1.095,1.904,1.284,2.144,1.479,0.588,1.065,0.981,�쐼,2.5,��
2016/11/03,07:10,1.095,1.905,1.285,2.142,1.478,0.588,1.065,0.982,���쐼,3.2,��
2016/11/03,07:20,1.095,1.904,1.283,2.142,1.480,0.589,1.064,0.983,���쐼,2.6,��
2016/11/03,07:30,1.095,1.906,1.281,2.144,1.475,0.587,1.063,0.981,���쐼,3.0,��
2016/11/03,07:40,1.094,1.903,1.287,2.145,1.480,0.589,1.067,0.981,�쐼,2.8,��
2016/11/03,07:50,1.092,1.905,1.286,2.148,1.477,0.589,1.065,0.983,��,1.7,��
2016/11/03,08:00,1.095,1.906,1.283,2.145,1.481,0.589,1.068,0.982,�k��,2.5,��
2016/11/03,08:10,1.097,1.904,1.285,2.146,1.480,0.588,1.067,0.984,�k��,3.1,��
2016/11/03,08:20,1.099,1.908,1.287,2.146,1.482,0.590,1.070,0.982,�k��,2.5,��
2016/11/03,08:30,1.101,1.908,1.286,2.143,1.482,0.588,1.066,0.983,�k��,2.6,��
2016/11/03,08:40,1.099,1.909,1.286,2.148,1.481,0.589,1.066,0.983,���k��,1.9,��
2016/11/03,08:50,1.103,1.909,1.285,2.147,1.482,0.590,1.065,0.985,���k��,1.5,��
2016/11/03,09:00,1.104,1.909,1.286,2.150,1.489,0.589,1.065,0.982,�k�k��,0.6,��
2016/11/03,09:10,1.104,1.912,1.285,2.146,1.484,0.591,1.064,0.983,��,0.9,��
2016/11/03,09:20,1.105,1.913,1.287,2.146,1.486,0.592,1.066,0.984,-,CALM,��
2016/11/03,09:30,1.105,1.914,1.291,2.147,1.486,0.592,1.066,0.983,-,CALM,��
2016/11/03,09:40,1.108,1.910,1.292,2.148,1.486,0.591,1.067,0.983,���k��,1.2,��
2016/11/03,09:50,1.104,1.911,1.291,2.149,1.487,0.591,1.066,0.984,�k��,1.7,��
2016/11/03,10:00,1.109,1.911,1.288,2.153,1.487,0.592,1.067,0.983,���쐼,4.9,��
2016/11/03,10:10,1.107,1.910,1.289,2.150,1.487,0.591,1.067,0.985,��,5.0,��
2016/11/03,10:20,1.108,1.910,1.288,2.152,1.487,0.590,1.068,0.984,��,8.3,��
2016/11/03,10:30,1.107,1.913,1.289,2.151,1.486,0.589,1.068,0.985,���k��,8.8,��
2016/11/03,10:40,1.108,1.911,1.289,2.153,1.492,0.590,1.069,0.985,���k��,10.1,��
2016/11/03,10:50,1.112,1.912,1.287,2.155,1.488,0.590,1.070,0.987,���k��,9.9,��
2016/11/03,11:00,1.111,1.916,1.290,2.154,1.490,0.589,1.071,0.985,��,7.5,��
2016/11/03,11:10,1.111,1.917,1.291,2.155,1.487,0.592,1.071,0.986,���k��,7.2,��
2016/11/03,11:20,1.112,1.918,1.294,2.155,1.491,0.590,1.071,0.985,���k��,6.7,��
2016/11/03,11:30,1.113,1.916,1.291,2.156,1.493,0.590,1.070,0.985,���k��,7.7,��
2016/11/03,11:40,1.112,1.919,1.294,2.156,1.492,0.593,1.069,0.987,�k��,3.5,��
2016/11/03,11:50,1.111,1.919,1.293,2.158,1.495,0.593,1.071,0.987,���k��,4.9,��
2016/11/03,12:00,1.113,1.920,1.295,2.157,1.497,0.594,1.070,0.987,��,3.6,��
2016/11/03,12:10,1.115,1.921,1.295,2.159,1.497,0.592,1.071,0.986,�k��,6.3,��
2016/11/03,12:20,1.112,1.923,1.297,2.159,1.498,0.593,1.071,0.986,��,9.9,��
2016/11/03,12:30,1.113,1.923,1.295,2.160,1.495,0.594,1.070,0.985,���k��,8.3,��
2016/11/03,12:40,1.113,1.922,1.296,2.157,1.497,0.594,1.070,0.984,�k��,8.9,��
2016/11/03,12:50,1.115,1.918,1.296,2.159,1.499,0.592,1.071,0.982,���k��,7.8,��
2016/11/03,13:00,1.114,1.919,1.295,2.162,1.497,0.591,1.072,0.983,��,8.3,��
2016/11/03,13:10,1.115,1.919,1.296,2.159,1.495,0.593,1.071,0.983,���k��,8.0,��
2016/11/03,13:20,1.116,1.918,1.294,2.160,1.499,0.594,1.068,0.984,���k��,8.3,��
2016/11/03,13:30,1.116,1.918,1.298,2.162,1.500,0.593,1.068,0.982,���k��,8.6,��
2016/11/03,13:40,1.118,1.922,1.300,2.161,1.498,0.593,1.068,0.982,��,7.8,��
2016/11/03,13:50,1.117,1.921,1.300,2.165,1.499,0.591,1.071,0.981,��,7.1,��
2016/11/03,14:00,1.116,1.923,1.300,2.163,1.503,0.592,1.071,0.984,��,10.5,��
2016/11/03,14:10,1.117,1.920,1.300,2.166,1.500,0.594,1.072,0.982,��,8.8,��
2016/11/03,14:20,1.116,1.920,1.301,2.164,1.502,0.594,1.071,0.982,��,7.5,��
2016/11/03,14:30,1.116,1.921,1.301,2.164,1.500,0.592,1.072,0.984,���k��,6.3,��
2016/11/03,14:40,1.115,1.925,1.301,2.162,1.499,0.591,1.070,0.982,���k��,4.6,��
2016/11/03,14:50,1.118,1.923,1.300,2.163,1.500,0.595,1.069,0.983,�k��,6.6,��
2016/11/03,15:00,1.117,1.920,1.303,2.164,1.500,0.594,1.072,0.981,�k��,6.6,��
2016/11/03,15:10,1.118,1.921,1.302,2.165,1.499,0.595,1.068,0.984,�k�k��,7.1,��
2016/11/03,15:20,1.118,1.925,1.305,2.166,1.498,0.595,1.068,0.986,�k�k��,7.7,��
2016/11/03,15:30,1.118,1.924,1.305,2.163,1.503,0.595,1.068,0.982,�k�k��,7.4,��
2016/11/03,15:40,1.116,1.928,1.306,2.162,1.502,0.595,1.069,0.984,�k��,7.5,��
2016/11/03,15:50,1.117,1.927,1.305,2.164,1.499,0.594,1.070,0.985,�k��,7.7,��
2016/11/03,16:00,1.119,1.931,1.306,2.161,1.500,0.595,1.069,0.986,�k��,5.3,��
2016/11/03,16:10,1.116,1.932,1.303,2.165,1.500,0.595,1.069,0.989,�k��,5.2,��
2016/11/03,16:20,1.115,1.930,1.306,2.163,1.499,0.594,1.071,0.986,�k��,4.1,��
2016/11/03,16:30,1.115,1.927,1.305,2.162,1.496,0.595,1.070,0.985,�k��,4.4,��
2016/11/03,16:40,1.114,1.929,1.305,2.159,1.498,0.593,1.070,0.985,�k��,3.1,��
2016/11/03,16:50,1.113,1.930,1.305,2.162,1.500,0.592,1.067,0.986,��,3.8,��
2016/11/03,17:00,1.117,1.927,1.303,2.161,1.501,0.595,1.069,0.986,��,5.2,��
2016/11/03,17:10,1.116,1.922,1.305,2.163,1.501,0.595,1.072,0.984,��,6.0,��
2016/11/03,17:20,1.115,1.927,1.304,2.162,1.501,0.594,1.072,0.986,��,4.7,��
2016/11/03,17:30,1.115,1.924,1.304,2.162,1.502,0.593,1.071,0.984,���k��,4.4,��
2016/11/03,17:40,1.115,1.929,1.305,2.162,1.501,0.595,1.071,0.986,���k��,2.8,��
2016/11/03,17:50,1.114,1.927,1.303,2.159,1.504,0.594,1.072,0.986,���k��,1.6,��
2016/11/03,18:00,1.115,1.927,1.305,2.162,1.500,0.593,1.071,0.986,���쐼,2.1,��
2016/11/03,18:10,1.114,1.926,1.304,2.160,1.500,0.593,1.072,0.986,���쐼,3.0,��
2016/11/03,18:20,1.115,1.929,1.303,2.163,1.503,0.592,1.073,0.986,���쐼,3.3,��
2016/11/03,18:30,1.115,1.926,1.304,2.162,1.498,0.590,1.070,0.985,���쐼,4.1,��
2016/11/03,18:40,1.114,1.926,1.304,2.163,1.499,0.592,1.069,0.984,���쐼,4.1,��
2016/11/03,18:50,1.116,1.928,1.301,2.159,1.504,0.592,1.072,0.986,��,2.8,��
2016/11/03,19:00,1.115,1.926,1.302,2.162,1.500,0.593,1.070,0.985,��,3.8,��
2016/11/03,19:10,1.113,1.926,1.304,2.159,1.500,0.593,1.071,0.984,��,4.7,��
2016/11/03,19:20,1.114,1.924,1.304,2.161,1.502,0.592,1.070,0.986,��,5.5,��
2016/11/03,19:30,1.112,1.925,1.302,2.165,1.499,0.593,1.072,0.986,��,5.2,��
2016/11/03,19:40,1.115,1.926,1.301,2.160,1.502,0.593,1.068,0.984,���k��,5.5,��
2016/11/03,19:50,1.112,1.925,1.303,2.160,1.499,0.592,1.070,0.984,���k��,5.2,��
2016/11/03,20:00,1.113,1.926,1.302,2.158,1.499,0.591,1.071,0.983,���k��,4.9,��
2016/11/03,20:10,1.114,1.927,1.301,2.160,1.499,0.592,1.070,0.985,���k��,3.8,��
2016/11/03,20:20,1.112,1.925,1.301,2.163,1.499,0.592,1.070,0.984,���k��,2.3,��
2016/11/03,20:30,1.114,1.926,1.302,2.159,1.499,0.589,1.070,0.985,���k��,3.1,��
2016/11/03,20:40,1.113,1.925,1.300,2.160,1.499,0.594,1.070,0.984,���k��,3.2,��
2016/11/03,20:50,1.114,1.926,1.302,2.161,1.501,0.592,1.068,0.984,���k��,2.0,��
2016/11/03,21:00,1.114,1.924,1.300,2.158,1.502,0.592,1.071,0.985,���쐼,1.8,��
2016/11/03,21:10,1.115,1.925,1.302,2.161,1.501,0.591,1.069,0.985,��,2.3,��
2016/11/03,21:20,1.114,1.928,1.300,2.162,1.501,0.591,1.070,0.985,���쐼,1.9,��
2016/11/03,21:30,1.114,1.928,1.301,2.160,1.501,0.592,1.070,0.985,��쐼,2.4,��
2016/11/03,21:40,1.114,1.927,1.302,2.160,1.500,0.592,1.070,0.984,��,2.3,��
2016/11/03,21:50,1.117,1.925,1.302,2.161,1.502,0.592,1.071,0.983,�쐼,1.3,��
2016/11/03,22:00,1.112,1.925,1.302,2.163,1.499,0.593,1.070,0.986,��쐼,3.3,��
2016/11/03,22:10,1.112,1.925,1.303,2.162,1.496,0.592,1.069,0.984,�쐼,2.9,��
2016/11/03,22:20,1.113,1.923,1.300,2.159,1.497,0.590,1.070,0.984,�쐼,2.5,��
2016/11/03,22:30,1.111,1.926,1.300,2.158,1.500,0.590,1.069,0.983,�쐼,3.1,��
2016/11/03,22:40,1.114,1.926,1.302,2.160,1.501,0.591,1.067,0.984,�쐼,3.8,��
2016/11/03,22:50,1.113,1.927,1.300,2.161,1.499,0.591,1.070,0.984,���쐼,5.0,��
2016/11/03,23:00,1.113,1.926,1.299,2.163,1.499,0.590,1.070,0.986,���쐼,6.6,��
2016/11/03,23:10,1.113,1.929,1.301,2.161,1.500,0.591,1.069,0.984,���쐼,6.3,��
2016/11/03,23:20,1.115,1.928,1.300,2.159,1.503,0.591,1.069,0.985,��,6.7,��
2016/11/03,23:30,1.114,1.927,1.300,2.160,1.499,0.591,1.071,0.984,��,8.3,��
2016/11/03,23:40,1.114,1.928,1.302,2.165,1.501,0.591,1.070,0.985,��,8.3,��
2016/11/03,23:50,1.117,1.926,1.301,2.162,1.501,0.593,1.071,0.986,��,7.1,��
